Skip Page Navigation
NASA JPL Caltech
NASA Logo - Jet Propulsion Laboratory + View the NASA Portal
+ Near-Earth Object (NEO) Program
Search JPL
JPL Home Earth Solar System Stars & Galaxies Technology
JPL Solar System Dynamics
BODIES ORBITS EPHEMERIDES TOOLS PHYSICAL DATA DISCOVERY FAQ SITE MAP
JPL Small-Body Database Browser
Search: [ help ]  
(2007 LF)
Classification: Apollo [NEO, PHA]          SPK-ID: 3378234
Ephemeris | Orbit Diagram | Orbital Elements | Physical Parameters | Close-Approach Data ]

[ hide orbit diagram ]
Orbit Diagram
Note: Make sure you have Java enabled on your browser to see the applet. This applet is provided as a 3D orbit visualization tool. The applet was implemented using 2-body methods, and hence should not be used for determining accurate long-term trajectories (over several years or decades) or planetary encounter circumstances. For accurate long-term ephemerides, please instead use our Horizons system.
Orbit Viewer

Additional Notes: the orbits shown in the applet are color coded. The planets are white lines, and the asteroid/comet is a blue line. The bright white line indicates the portion of the orbit that is above the ecliptic plane, and the darker portion is below the ecliptic plane. Likewise for the asteroid/comet orbit, the light blue indicates the portion above the ecliptic plane, and the dark blue the portion below the ecliptic plane.

Orbit Viewer applet originally written and kindly provided by Osamu Ajiki (AstroArts), and further modified by Ron Baalke (JPL).


Orbital Elements at Epoch 2456400.5 (2013-Apr-18.0) TDB
Reference: JPL 33 (heliocentric ecliptic J2000)
 Element Value Uncertainty (1-sigma)   Units 
e .419766407102336 2.5608e-07  
a 1.682844700664472 8.7474e-07 AU
q .9764430269553405 3.9215e-07 AU
i 6.985440491107702 1.6035e-05 deg
node 239.4918081243735 5.7044e-05 deg
peri 333.6916081558772 0.00014115 deg
M 262.9207275474863 0.00078631 deg
tp 2456615.524773180163
(2013-Nov-19.02477318)
0.0019092 JED
period 797.3784350590726
2.18
0.00062172
1.702e-06
d
yr
n .4514794784653663 3.5202e-07 deg/d
Q 2.389246374373603 1.2419e-06 AU
  Orbit Determination Parameters
   # obs. used (total)      300  
   data-arc span      605 days (1.66 yr)  
   first obs. used      2007-06-07  
   last obs. used      2009-02-01  
   planetary ephem.      DE405  
   SB-pert. ephem.      SB405-CPV-2  
   condition code      2  
   fit RMS      .46296  
   data source      ORB  
   producer      Otto Matic  
   solution date      2011-Sep-14 20:18:03  

Additional Information
 Earth MOID = .00309902 AU 
 T_jup = 4.117 
[ show covariance matrix ]

Ephemeris | Orbit Diagram | Orbital Elements | Physical Parameters | Close-Approach Data ]

Physical Parameter Table
Parameter Symbol Value Units Sigma Reference Notes
absolute magnitude H 20.479 mag .4324 33 autocmod 2.5a

[ show close-approach data ]
Ephemeris | Orbit Diagram | Orbital Elements | Physical Parameters | Close-Approach Data ]
ABOUT SSD CREDITS/AWARDS PRIVACY/COPYRIGHT GLOSSARY LINKS
FirstGov 2013-Jun-19 09:12 UT
(server date/time)  
NASA Home Page
Site Manager:   Donald K. Yeomans
Webmaster  Alan B. Chamberlin